Погода в Гаэте

Италия     41°13′10″N   13°33′58″E
темп.,
°C
ветер,
м/с
пор.,
м/с
влажн.,
%
обл.,
%
осадки,
мм/ч
давл.,
гПа
погр.,
м
6 марта, сб
сб601:00+10в1191100 1.5 1021105
04:00+10всв228798 0.8 1020110
07:00+10всв238492 0.9 1022103
10:00+12всв237594 0.1 1024296
13:00+12в117297 0.1 1024233
16:00+14юз116572 0.1 1024434
19:00+11ссв118049 0.4 102540
22:00+10св237816 0.0 1026113
7 марта, вс
вс701:00+9всв33748 0.0 102692
04:00+9всв337128 0.0 102598
07:00+9всв337138 0.0 1025116
10:00+12юв22626 0.0 1024512
13:00+12ююв337016 0.0 1023440
16:00+12ююв23782 0.1 1020381
19:00+10вюв128523 0.1 1020195
22:00+10вюв228786 0.0 1020233
8 марта, пн
пн801:00+10в338592 0.1 1019141
04:00+10в3389100 0.7 1016189
07:00+10вюв3497100 6.4 1016253
10:00+10вюв4693100 3.6 1015437
13:00+11ююв3594100 10.5 1015424
16:00+11ююз3593100 6.8 1013448
19:00+11юв3493100 12.0 1014289
22:00+11ююв3494100 6.8 1014322
9 марта, вт
вт901:00+11вюв1293100 13.1 1014135
04:00+10всв2394100 7.9 1013203
07:00+9св4488100 11.1 1013153
10:00+11в3381100 0.0 1014288
13:00+12юв4577100 0.1 1014579
16:00+12юв5681100 0.1 1013565
19:00+10в3384100 0.4 1014223
22:00+10всв2282100 0.1 1015185
10 марта, ср
ср1001:00+10св227794 0.1 1016112
04:00+9ссв348266 0.0 1016149
07:00+9св448254 0.1 1017205
10:00+12св236387 0.0 1019625
13:00+14зюз226044 0.2 1019775
16:00+13зсз44712 0.8 1020458
19:00+11сз33821 0.9 1021139
22:00+10всв22750 0.0 1023152